Location: Kampung Segan
(3.1399°N, 113.1002°E)
Time: 20:18:17
(UTC+00:00)

NOAA 12 - Pass Details

Date: 05 August 2024
Orbit: 793 x 814 km, 98.6° (Epoch: 11 September)

Event Time Altitude Azimuth Distance (km) Brightness Sun altitude
Rises 21:37:26 0° 3° (N) 3,291 7.6 -12.5°
Reaches altitude 10° 21:39:49 10° 358° (N) 2,360 6.7 -11.9°
Maximum altitude 21:44:51 52° 283° (WNW) 980 4.2 -10.7°
Drops below altitude 10° 21:49:55 10° 207° (SSW) 2,358 6.1 -9.5°
Sets 21:52:18 0° 202° (SSW) 3,288 6.9 -9.0°
